Search your local weather  

 

Hazardous Weather Conditions

No active alerts for LOS ANGELES, CALIFORNIA

Current Conditions: LOS ANGELES, CALIFORNIA

Clear


79.0 F

Last Updated on Sep 28 2022, 01:51 PM PDT
Humidity: 62%
Wind Speed: SW 9.2 mph
Barometer 29.92 in
Dewpoint: 64.9 F
Visibility: 10.00 mi
Precip: --
Heat Index: 79.5 F
Wind Chill: NA
Current conditions at:

SANTA MONICA (KSMO)

Lat: 34.02 Lon: -118.45

Local Radar Image active severe weather and emergency alerts image image weather storm and storm spotter reports image weather observation monitoring service image
Local
Radar
Active
Alerts
Storm Reports Weather
Monitoring

5 Day Forecast for LOS ANGELES, CALIFORNIA (90001)

Wednesday

Sunny

High 93 °F
Wednesday
Night
Mostly Clear

Low 67 °F
Thursday

Mostly Sunny

High 88 °F
Thursday
Night
Clear

Low 65 °F
Friday

Sunny

High 83 °F
Friday
Night
Overnight Fog
Low 62 °F
Saturday

Sunny

High 79 °F
Saturday
Night
Overnight Fog
Low 62 °F
Sunday

Sunny

High 79 °F

Sign-up For Email & Text Message Weather Alert Notification Services



Advertise Here

Observation History for LOS ANGELES, CALIFORNIA


Time Wind
(mph)
Vis
(mi)
Weather Precip (in) Temperature (F) Relative
Humidity
Wind
Chill
(F)
Heat
Index
(F)
Pressure
Air Dwpt altimeter
(in)
sea level
(mb)
01:51 PM PDT SW 9.2 10.00 Clear -- 79.0 64.9 62% NA 79.5 29.92 1013.2
12:51 PM PDT SW 9.2 10.00 Clear -- 79.0 64.0 60% NA 79.3 29.94 1013.6
11:51 AM PDT SW 6.9 10.00 Clear -- 82.0 61.0 49% NA 82.6 29.94 1013.9
10:51 AM PDT 4.7 10.00 Clear -- 79.0 64.0 60% NA 79.3 29.94 1013.9
09:51 AM PDT S 3.4 10.00 Clear -- 75.9 64.0 67% NA 76.3 29.94 1013.9
08:51 AM PDT S 3.4 10.00 Clear -- 72.0 64.0 76% NA 72.5 29.94 1013.6
07:51 AM PDT 0.0 10.00 Clear -- 70.0 62.1 76% NA NA 29.92 1013.2
06:51 AM PDT 0.0 10.00 Clear -- 66.9 62.1 84% NA NA 29.91 1012.9
05:51 AM PDT 0.0 10.00 Clear -- 66.9 61.0 81% NA NA 29.89 1012.2
04:51 AM PDT 0.0 10.00 Clear -- 66.9 61.0 81% NA NA 29.88 1011.9
03:51 AM PDT 0.0 10.00 Clear -- 68.0 62.1 81% NA NA 29.88 1011.9
02:51 AM PDT 0.0 10.00 Clear -- 68.0 62.1 81% NA NA 29.89 1012.2
01:51 AM PDT 0.0 10.00 Clear -- 69.1 63.0 81% NA NA 29.89 1012.2
12:51 AM PDT 0.0 10.00 Clear -- 70.0 63.0 78% NA NA 29.89 1012.2
11:51 PM PDT 0.0 10.00 Clear -- 69.1 63.0 81% NA NA 29.89 1012.2
10:51 PM PDT 0.0 10.00 Clear -- 70.0 63.0 78% NA NA 29.89 1012.2
09:51 PM PDT 0.0 10.00 Clear -- 70.0 63.0 78% NA NA 29.88 1011.9
08:51 PM PDT 5.8 10.00 Clear -- 69.1 63.0 81% NA NA 29.85 1010.8
07:51 PM PDT 3.4 10.00 Clear -- 70.0 64.0 81% NA NA 29.84 1010.5
06:51 PM PDT SW 5.8 10.00 Clear -- 71.1 63.0 76% NA 71.4 29.83 1010.2
05:51 PM PDT SW 8.1 10.00 Clear -- 72.0 62.1 71% NA 72.1 29.83 1010.2
04:51 PM PDT 6.9 10.00 Clear -- 75.0 62.1 64% NA 75.2 29.82 1009.8
03:51 PM PDT SW 8.1 10.00 Clear -- 78.1 61.0 56% NA 78.3 29.83 1010.2
02:51 PM PDT SW 6.9 10.00 Clear -- 79.0 61.0 54% NA 79.2 29.84 1010.5

Regional Weather Observation

LOS ANGELES (KCQT)

Clear
86.0 F

BURBANK (KBUR)

Clear
97.0 F

VAN NUYS (KVNY)

Clear
100.9 F

LA / WHITEMAN (KWHP)

Clear
95.0 F

LOS ANGELES (KLAX)

Partly Cloudy
79.0 F

HAWTHORNE (KHHR)

Clear
82.9 F

Advertise Here


Advertise Here